| time (UTC) | temp F | wind direction | speed knots | gust knots | rain 1hr in | rain 24hr in | rain mn in | humidity % | barometer mb |
| 20260505070026 | 63 | 155 | 0.0 | 4.3 | 0.00 | 0.00 | 0.00 | 66 | 1014.2 |
| 20260505064534 | 63 | 183 | 0.0 | 3.5 | 0.00 | 0.00 | 0.00 | 65 | 1014.2 |
| 20260505063005 | 64 | 113 | 0.9 | 6.1 | 0.00 | 0.00 | 0.00 | 65 | 1014.2 |
| 20260505061515 | 64 | 200 | 0.9 | 7.8 | 0.00 | 0.00 | 0.00 | 65 | 1014.2 |
| 20260505060012 | 64 | 69 | 0.9 | 5.2 | 0.00 | 0.00 | 0.00 | 65 | 1014.1 |
| 20260505054525 | 64 | 74 | 0.9 | 3.5 | 0.00 | 0.00 | 0.00 | 65 | 1014.2 |
| 20260505053022 | 64 | 82 | 2.6 | 8.7 | 0.00 | 0.00 | 0.00 | 65 | 1014.3 |
| 20260505051505 | 64 | 145 | 3.5 | 7.0 | 0.00 | 0.00 | 0.00 | 65 | 1014.3 |
| 20260505041523 | 65 | 207 | 0.0 | 4.3 | 0.00 | 0.00 | 0.00 | 63 | 1014.2 |
| 20260505040008 | 66 | 199 | 0.9 | 4.3 | 0.00 | 0.00 | 0.00 | 60 | 1014.0 |
| 20260505034511 | 66 | 198 | 2.6 | 7.0 | 0.00 | 0.00 | 0.00 | 58 | 1014.0 |
| 20260505033020 | 66 | 157 | 1.7 | 7.8 | 0.00 | 0.00 | 0.00 | 56 | 1013.9 |
| 20260505031537 | 66 | 94 | 0.9 | 7.8 | 0.00 | 0.00 | 0.00 | 55 | 1013.9 |
| 20260505030024 | 66 | 244 | 0.9 | 1.7 | 0.00 | 0.00 | 0.00 | 53 | 1013.8 |
| 20260505024518 | 66 | 91 | 0.0 | 1.7 | 0.00 | 0.00 | 0.00 | 53 | 1013.6 |
| 20260505023014 | 67 | 60 | 0.0 | 4.3 | 0.00 | 0.00 | 0.00 | 52 | 1013.5 |
| 20260505021525 | 67 | 259 | 0.0 | 3.5 | 0.00 | 0.00 | 0.00 | 50 | 1013.4 |
| 20260505020030 | 68 | 218 | 0.0 | 3.5 | 0.00 | 0.00 | 0.00 | 50 | 1013.3 |
| 20260505014529 | 67 | 257 | 0.9 | 4.3 | 0.00 | 0.00 | 0.00 | 51 | 1013.2 |
| 20260505013010 | 66 | 258 | 1.7 | 5.2 | 0.00 | 0.00 | 0.00 | 52 | 1012.8 |
| 20260505011528 | 66 | 288 | 0.0 | 1.7 | 0.00 | 0.00 | 0.00 | 54 | 1013.1 |
| 20260505010021 | 66 | 338 | 0.0 | 1.7 | 0.00 | 0.00 | 0.00 | 52 | 1013.0 |
| 20260505004541 | 67 | 338 | 0.0 | 1.7 | 0.00 | 0.00 | 0.00 | 49 | 1012.8 |
| 20260505003009 | 69 | 338 | 0.0 | 0.0 | 0.00 | 0.00 | 0.00 | 47 | 1012.9 |
| 20260505001515 | 70 | 338 | 0.0 | 1.7 | 0.00 | 0.00 | 0.00 | 46 | 1012.6 |
| 20260505000008 | 72 | 181 | 0.0 | 0.0 | 0.00 | 0.00 | 0.00 | 41 | 1012.4 |
| 20260504234505 | 73 | 175 | 0.0 | 1.7 | 0.00 | 0.00 | 0.00 | 39 | 1012.4 |
| 20260504233008 | 74 | 190 | 0.0 | 2.6 | 0.00 | 0.00 | 0.00 | 39 | 1012.4 |
| 20260504231515 | 75 | 162 | 0.0 | 3.5 | 0.00 | 0.00 | 0.00 | 37 | 1012.3 |
| 20260504230019 | 76 | 233 | 1.7 | 5.2 | 0.00 | 0.00 | 0.00 | 35 | 1012.3 |
| 20260504224506 | 77 | 173 | 0.0 | 5.2 | 0.00 | 0.00 | 0.00 | 34 | 1012.1 |
| 20260504223007 | 78 | 144 | 0.9 | 4.3 | 0.00 | 0.00 | 0.00 | 33 | 1012.1 |
| 20260504221513 | 79 | 171 | 1.7 | 4.3 | 0.00 | 0.00 | 0.00 | 31 | 1012.2 |
| 20260504220015 | 80 | 201 | 0.9 | 7.8 | 0.00 | 0.00 | 0.00 | 33 | 1012.1 |
| 20260504214504 | 80 | 238 | 1.7 | 6.1 | 0.00 | 0.00 | 0.00 | 33 | 1012.1 |
| 20260504213005 | 80 | 304 | 0.9 | 3.5 | 0.00 | 0.00 | 0.00 | 33 | 1012.2 |
| 20260504211527 | 80 | 190 | 1.7 | 3.5 | 0.00 | 0.00 | 0.00 | 35 | 1012.4 |
| 20260504210026 | 80 | 260 | 1.7 | 5.2 | 0.00 | 0.00 | 0.00 | 36 | 1012.4 |
| 20260504204519 | 80 | 27 | 1.7 | 6.1 | 0.00 | 0.00 | 0.00 | 32 | 1012.7 |
| 20260504203029 | 80 | 230 | 0.9 | 5.2 | 0.00 | 0.00 | 0.00 | 34 | 1012.7 |
| 20260504201525 | 79 | 273 | 2.6 | 6.1 | 0.00 | 0.00 | 0.00 | 32 | 1012.8 |
| 20260504200012 | 79 | 14 | 0.0 | 6.1 | 0.00 | 0.00 | 0.00 | 29 | 1013.0 |
| 20260504194531 | 79 | 233 | 2.6 | 6.1 | 0.00 | 0.00 | 0.00 | 30 | 1013.2 |
| 20260504193024 | 79 | 156 | 1.7 | 5.2 | 0.00 | 0.00 | 0.00 | 35 | 1013.3 |
| 20260504191508 | 78 | 159 | 0.9 | 4.3 | 0.00 | 0.00 | 0.00 | 35 | 1013.6 |
| 20260504190012 | 77 | 109 | 0.9 | 4.3 | 0.00 | 0.00 | 0.00 | 33 | 1013.8 |
| 20260504184530 | 76 | 220 | 1.7 | 7.8 | 0.00 | 0.00 | 0.00 | 35 | 1013.9 |
| 20260504183020 | 77 | 155 | 0.9 | 5.2 | 0.00 | 0.00 | 0.00 | 32 | 1014.0 |
| 20260504181532 | 77 | 90 | 1.7 | 5.2 | 0.00 | 0.00 | 0.00 | 34 | 1014.2 |
| 20260504180010 | 77 | 244 | 1.7 | 7.8 | 0.00 | 0.00 | 0.00 | 32 | 1014.4 |
| 20260504174514 | 77 | 175 | 2.6 | 7.8 | 0.00 | 0.00 | 0.00 | 33 | 1014.5 |
| 20260504173019 | 77 | 178 | 3.5 | 7.0 | 0.00 | 0.00 | 0.00 | 34 | 1014.7 |
| 20260504171524 | 77 | 273 | 2.6 | 7.0 | 0.00 | 0.00 | 0.00 | 31 | 1014.8 |
| 20260504081526 | 51 | 257 | 0.0 | 1.7 | 0.00 | 0.00 | 0.00 | 70 | 1017.6 |